Retour au catalogue

STARLINK-11631

ActifCommunicationsVLEO
NORAD 63195·PAYLOAD·🇺🇸 United States

Lancé Mar 13, 2025 depuis Cape Canaveral Space Force Station

Loading…

Prochains Passages (prochaines 24 heures)

TLE

FraisSource: CelesTrak SupGP

Époque: Sep 15, 2026, 02:53 UTC

1 63195C 25048N   26258.12062500 -.00010459  00000+0 -81208-4 0  2583
2 63195  43.0005 258.5250 0001432 254.4889 284.8623 15.70851391    19

Suivez STARLINK-11631 en temps réel avec AllMySat

Download on the App Store